星链-2651 (STARLINK-2651 )

导读 | 豆包AI

STARLINK-2651是美国太空探索技术公司(SpaceX)星链(Starlink)卫星互联网项目中的卫星,于2021年5月26日发射入轨。星链项目旨在搭建全球卫星互联网星座,该卫星运行在近地轨道,负责信号中继,为地面用户提供低延迟宽带网络服务,是星链星座建设中重要组成单元。

基本信息
目录编号:
48654
目录名称:
STARLINK-2651
国际标识:
2021-044S
轨道中心:
EARTH
卫星名称:
星链-2651
卫星全名:
星链-2651 (STARLINK-2651 )
卫星状态:
已陨落 最后检测时间 2025-11-19
发射日期:
2021-05-26 UTC
国别 :
美国 (US)
星等 :
--
轨道信息
数据来源 国际轨道数据
星历时间: 2025-11-19T02:58:09+0800
轨道信息已过期162天
半长轴: 6539.436km
偏心率: 0.0004611
轨道倾角: 53.034°
近地点辐角 235.966°
升交点赤经 229.785°
平近点角 124.095°
近地点: 158.285km
远地点: 164.317km
周期: 87.714分钟
每日圈数: 16.416945
详细信息
固有亮度:
5
最大亮度:
2.5
卫星平台:
Starlink V1.0
覆盖范围:
全球
运营商:
太空探索技术公司
运营商所在国:
美国
制造商(研发单位):
太空探索技术公司
制造商所在国:
美国
使用方式:
暂无
卫星简介
星链(Starlink)计划是由太空探索技术公司(SpaceX)提出的一个巨型低轨卫星互联网星座项目,计划在2019年至2024年间在太空搭建由约1.2万颗卫星组成的“星链”网络,其中1584颗将部署在地球上空550千米处的近地轨道,并从2020年开始工作。该卫星仍在工作。